Location: *
(17.3280°S, 114.7300°W)
Time: 10:58:24
(UTC+00:00)

Envisat - Pass Details

Date: 01 November 2020
Orbit: 764 x 766 km, 98.1° (Epoch: 28 November)

Event Time Altitude Azimuth Distance (km) Brightness Sun altitude
Rises 12:31:46 0° 29° (NNE) 3,212 6.4 -7.3°
Reaches altitude 10° 12:34:12 10° 37° (NE) 2,293 5.7 -6.8°
Maximum altitude 12:38:52 39° 105° (ESE) 1,143 4.8 -5.7°
Drops below altitude 10° 12:43:35 10° 172° (S) 2,314 5.8 -4.6°
Sets 12:46:01 0° 179° (S) 3,246 6.5 -4.1°
